When you browse on this site, cookies collect data to enhance your experience and personalize the content and advertising you see.
Visit our Privacy Policy to learn more. By continuing to use the site, you agree to this use of cookies and data.
  • In Lithuania
  • List of Countries
  • For 7 days
  • Water Temperature
  • Satellite Maps
  • Weather Map
  • Weather Widgets
  • user-avatar
    Login

    Hourly Weather Surabaya

    Today, 26 April, Friday

    Time Temperature Precipitation Wind Pressure Humidity
    00:00 +30°C° 0 mm 2 mps 756 mmHg 71%
    01:00 +30°C° 0 mm 1 mps 756 mmHg 73%
    02:00 +29°C° 0 mm 1 mps 756 mmHg 75%
    03:00 +29°C° 0 mm 1 mps 755 mmHg 75%
    04:00 +29°C° 0 mm 1 mps 755 mmHg 75%
    05:00 +28°C° 0 mm 1 mps 755 mmHg 76%
    06:00 +29°C° 0 mm 1 mps 755 mmHg 74%
    07:00 +30°C° 0 mm 1 mps 755 mmHg 72%
    08:00 +30°C° 0 mm 1 mps 755 mmHg 70%
    09:00 +32°C° 0 mm 1 mps 755 mmHg 64%
    10:00 +33°C° 0 mm 1 mps 755 mmHg 59%
    11:00 +35°C° 0 mm 1 mps 755 mmHg 53%
    12:00 +36°C° 0 mm 2 mps 755 mmHg 51%
    13:00 +37°C° 0 mm 2 mps 754 mmHg 48%
    14:00 +37°C° 0 mm 2 mps 754 mmHg 46%
    15:00 +37°C° 0 mm 2 mps 754 mmHg 47%
    16:00 +37°C° 0 mm 2 mps 753 mmHg 48%
    17:00 +36°C° 0 mm 2 mps 753 mmHg 49%
    18:00 +35°C° 0 mm 2 mps 754 mmHg 55%
    19:00 +34°C° 0 mm 3 mps 754 mmHg 61%
    20:00 +31°C° 0 mm 3 mps 754 mmHg 67%
    21:00 +31°C° 0 mm 2 mps 755 mmHg 70%
    22:00 +31°C° 0 mm 2 mps 755 mmHg 73%
    23:00 +30°C° 0 mm 2 mps 756 mmHg 75%

    Tomorrow, 27 April, Saturday

    Time Temperature Precipitation Wind Pressure Humidity
    00:00 +30°C° 0 mm 1 mps 755 mmHg 77%
    01:00 +30°C° 0 mm 1 mps 755 mmHg 78%
    02:00 +29°C° 0 mm 1 mps 755 mmHg 79%
    03:00 +29°C° 0.3 mm 1 mps 755 mmHg 80%
    04:00 +29°C° 0.3 mm 1 mps 755 mmHg 81%
    05:00 +29°C° 0.3 mm 1 mps 755 mmHg 83%
    06:00 +29°C° 0.1 mm 1 mps 755 mmHg 80%
    07:00 +30°C° 0.1 mm 1 mps 755 mmHg 78%
    08:00 +30°C° 0.1 mm 1 mps 756 mmHg 75%
    09:00 +32°C° 0.2 mm 1 mps 756 mmHg 68%
    10:00 +33°C° 0.2 mm 1 mps 756 mmHg 61%
    11:00 +35°C° 0.2 mm 1 mps 756 mmHg 54%
    12:00 +35°C° 0.4 mm 1 mps 755 mmHg 53%
    13:00 +36°C° 0.4 mm 2 mps 755 mmHg 52%
    14:00 +37°C° 0.4 mm 2 mps 754 mmHg 52%
    15:00 +36°C° 1.3 mm 2 mps 754 mmHg 55%
    16:00 +35°C° 1.3 mm 2 mps 754 mmHg 58%
    17:00 +34°C° 1.3 mm 2 mps 754 mmHg 61%
    18:00 +32°C° 1.3 mm 2 mps 754 mmHg 65%
    19:00 +31°C° 1.3 mm 2 mps 755 mmHg 69%
    20:00 +30°C° 1.3 mm 1 mps 755 mmHg 73%
    21:00 +30°C° 0.2 mm 1 mps 756 mmHg 74%
    22:00 +30°C° 0.2 mm 1 mps 756 mmHg 75%
    23:00 +30°C° 0.2 mm 1 mps 756 mmHg 76%

    Day after tomorrow, 28 April, Sunday

    Time Temperature Precipitation Wind Pressure Humidity
    00:00 +29°C° 0.3 mm 1 mps 756 mmHg 77%
    01:00 +29°C° 0.3 mm 1 mps 756 mmHg 77%
    02:00 +29°C° 0.3 mm 1 mps 755 mmHg 78%
    03:00 +29°C° 0.5 mm 1 mps 755 mmHg 79%
    04:00 +28°C° 0.5 mm 1 mps 755 mmHg 79%
    05:00 +28°C° 0.5 mm 1 mps 755 mmHg 79%
    06:00 +29°C° 0 mm 1 mps 755 mmHg 77%
    07:00 +29°C° 0 mm 1 mps 756 mmHg 75%
    08:00 +30°C° 0 mm 1 mps 756 mmHg 72%
    09:00 +31°C° 0.2 mm 1 mps 756 mmHg 66%
    10:00 +33°C° 0.2 mm 1 mps 756 mmHg 59%
    11:00 +34°C° 0.2 mm 1 mps 756 mmHg 53%
    12:00 +35°C° 0.5 mm 2 mps 756 mmHg 53%
    13:00 +36°C° 0.5 mm 2 mps 755 mmHg 53%
    14:00 +36°C° 0.5 mm 3 mps 755 mmHg 53%
    15:00 +35°C° 1.4 mm 2 mps 754 mmHg 55%
    16:00 +35°C° 1.4 mm 2 mps 754 mmHg 58%
    17:00 +34°C° 1.4 mm 2 mps 754 mmHg 61%
    18:00 +32°C° 0.6 mm 2 mps 755 mmHg 64%
    19:00 +31°C° 0.6 mm 1 mps 755 mmHg 67%
    20:00 +30°C° 0.6 mm 1 mps 756 mmHg 70%
    21:00 +30°C° 0.1 mm 1 mps 756 mmHg 71%
    22:00 +30°C° 0.1 mm 1 mps 757 mmHg 71%
    23:00 +29°C° 0.1 mm 1 mps 757 mmHg 72%

    29 April, Monday

    Time Temperature Precipitation Wind Pressure Humidity
    00:00 +29°C° 0 mm 1 mps 757 mmHg 73%
    01:00 +29°C° 0 mm 1 mps 756 mmHg 74%
    02:00 +29°C° 0 mm 1 mps 756 mmHg 75%
    03:00 +28°C° 0 mm 1 mps 756 mmHg 75%
    04:00 +28°C° 0 mm 1 mps 755 mmHg 76%
    05:00 +28°C° 0 mm 1 mps 755 mmHg 76%
    06:00 +29°C° 0 mm 1 mps 756 mmHg 74%
    07:00 +29°C° 0 mm 1 mps 756 mmHg 73%
    08:00 +29°C° 0 mm 1 mps 757 mmHg 71%
    09:00 +31°C° 0 mm 1 mps 757 mmHg 67%
    10:00 +30°C° 0 mm 0 mps 757 mmHg 62%
    11:00 +31°C° 0 mm 0 mps 757 mmHg 57%
    12:00 +32°C° 0 mm 0 mps 756 mmHg 56%
    13:00 +34°C° 0 mm 1 mps 756 mmHg 54%
    14:00 +34°C° 0 mm 1 mps 755 mmHg 53%
    15:00 +34°C° 0 mm 1 mps 755 mmHg 56%
    16:00 +33°C° 0 mm 1 mps 754 mmHg 59%
    17:00 +34°C° 0 mm 2 mps 754 mmHg 62%
    18:00 +32°C° 0.3 mm 1 mps 755 mmHg 65%
    19:00 +31°C° 0.3 mm 1 mps 756 mmHg 69%
    20:00 +30°C° 0.3 mm 1 mps 756 mmHg 72%
    21:00 +30°C° 0.2 mm 1 mps 756 mmHg 73%
    22:00 +28°C° 0.2 mm 0 mps 757 mmHg 74%
    23:00 +27°C° 0.2 mm 0 mps 757 mmHg 75%

    30 April, Tuesday

    Time Temperature Precipitation Wind Pressure Humidity
    00:00 +27°C° 0 mm 0 mps 756 mmHg 75%
    01:00 +27°C° 0 mm 0 mps 756 mmHg 76%
    02:00 +29°C° 0 mm 1 mps 755 mmHg 77%
    03:00 +28°C° 0 mm 1 mps 755 mmHg 78%
    04:00 +28°C° 0 mm 1 mps 755 mmHg 79%
    05:00 +28°C° 0 mm 1 mps 755 mmHg 79%
    06:00 +29°C° 0.3 mm 1 mps 755 mmHg 77%
    07:00 +29°C° 0.3 mm 1 mps 756 mmHg 75%
    08:00 +30°C° 0.3 mm 1 mps 757 mmHg 72%
    09:00 +31°C° 0.1 mm 1 mps 756 mmHg 66%
    10:00 +31°C° 0.1 mm 0 mps 756 mmHg 59%
    11:00 +33°C° 0.1 mm 0 mps 756 mmHg 53%
    12:00 +35°C° 0.6 mm 1 mps 755 mmHg 53%
    13:00 +35°C° 0.6 mm 1 mps 755 mmHg 53%
    14:00 +36°C° 0.6 mm 2 mps 754 mmHg 53%
    15:00 +35°C° 0.8 mm 2 mps 754 mmHg 56%
    16:00 +35°C° 0.8 mm 2 mps 754 mmHg 59%
    17:00 +34°C° 0.8 mm 2 mps 754 mmHg 62%
    18:00 +32°C° 1.1 mm 2 mps 754 mmHg 66%
    19:00 +31°C° 1.1 mm 2 mps 755 mmHg 71%
    20:00 +30°C° 1.1 mm 1 mps 756 mmHg 75%
    21:00 +30°C° 1.3 mm 1 mps 756 mmHg 76%
    22:00 +29°C° 1.3 mm 1 mps 756 mmHg 76%
    23:00 +29°C° 1.3 mm 1 mps 756 mmHg 77%

    1 May, Wednesday

    Time Temperature Precipitation Wind Pressure Humidity
    00:00 +29°C° 0 mm 1 mps 756 mmHg 78%
    01:00 +29°C° 0 mm 1 mps 755 mmHg 79%
    02:00 +28°C° 0 mm 1 mps 755 mmHg 80%
    03:00 +28°C° 0 mm 1 mps 755 mmHg 81%
    04:00 +28°C° 0 mm 1 mps 755 mmHg 82%
    05:00 +28°C° 0 mm 1 mps 755 mmHg 82%
    06:00 +28°C° 0 mm 1 mps 755 mmHg 80%
    07:00 +29°C° 0 mm 1 mps 756 mmHg 77%
    08:00 +29°C° 0 mm 1 mps 756 mmHg 75%
    09:00 +31°C° 0 mm 1 mps 756 mmHg 68%
    10:00 +33°C° 0 mm 1 mps 756 mmHg 61%
    11:00 +34°C° 0 mm 1 mps 756 mmHg 54%
    12:00 +35°C° 0 mm 1 mps 755 mmHg 52%
    13:00 +36°C° 0 mm 1 mps 754 mmHg 50%
    14:00 +37°C° 0 mm 2 mps 753 mmHg 48%
    15:00 +36°C° 0.3 mm 2 mps 753 mmHg 51%
    16:00 +36°C° 0.3 mm 2 mps 753 mmHg 55%
    17:00 +35°C° 0.3 mm 2 mps 753 mmHg 59%
    18:00 +34°C° 1.6 mm 2 mps 754 mmHg 64%
    19:00 +31°C° 1.6 mm 2 mps 755 mmHg 70%
    20:00 +30°C° 1.6 mm 2 mps 755 mmHg 76%
    21:00 +30°C° 1.7 mm 1 mps 756 mmHg 76%
    22:00 +30°C° 1.7 mm 1 mps 756 mmHg 76%
    23:00 +29°C° 1.7 mm 1 mps 756 mmHg 77%
    Show more